This is the latest recevied weather packets stored in our database for station/object HARMAJA. If no packets are shown the sender has not sent any weather packets the latest 10 day(s).
| Time | Temp. | Humidity | Pressure | Rain* | Wind** | Luminosity | Snow |
|---|---|---|---|---|---|---|---|
| 1777529211 | 4.44° C | 82% | 1021.8 hPa | - | - | - | - |
| 1777528011 | 4.44° C | 80% | 1022.1 hPa | - | - | - | - |
| 1777526811 | 4.44° C | 78% | 1022.1 hPa | - | - | - | - |
| 1777525611 | 4.44° C | 78% | 1022.2 hPa | - | - | - | - |
| 1777524411 | 4.44° C | 78% | 1022.5 hPa | - | - | - | - |
| 1777523211 | 4.44° C | 78% | 1022.4 hPa | - | - | - | - |
| 1777522011 | 4.44° C | 76% | 1022.3 hPa | - | - | - | - |
| 1777520811 | 3.89° C | 72% | 1022.4 hPa | - | - | - | - |
| 1777519610 | 3.89° C | 72% | 1022.5 hPa | - | - | - | - |
| 1777518411 | 4.44° C | 71% | 1022.6 hPa | - | - | - | - |
| 1777517210 | 3.89° C | 71% | 1022.5 hPa | - | - | - | - |
| 1777516010 | 3.89° C | 73% | 1022.7 hPa | - | - | - | - |
| 1777514810 | 3.89° C | 73% | 1022.7 hPa | - | - | - | - |
| 1777513611 | 3.89° C | 70% | 1022.7 hPa | - | - | - | - |
| 1777508810 | 4.44° C | 68% | 1023.5 hPa | - | - | - | - |
| 1777501610 | 4.44° C | 60% | 1023.7 hPa | - | - | - | - |
| 1777496809 | 5° C | 66% | 1023.6 hPa | - | - | - | - |
| 1777494409 | 5.56° C | 56% | 1023.6 hPa | - | - | - | - |
| 1777493209 | 5.56° C | 60% | 1023.5 hPa | - | - | - | - |
| 1777492009 | 6.11° C | 55% | 1023.5 hPa | - | - | - | - |
| 1777490809 | 6.11° C | 54% | 1023.5 hPa | - | - | - | - |
| 1777489609 | 6.11° C | 55% | 1023.4 hPa | - | - | - | - |
| 1777487209 | 6.67° C | 57% | 1023.2 hPa | - | - | - | - |
| 1777486009 | 6.67° C | 57% | 1023 hPa | - | - | - | - |
| 1777483608 | 7.78° C | 46% | 1022.9 hPa | - | - | - | - |
* Rain since midnight (hover to see other rain measurements)
** Current wind speed in m/s (hover to see current wind gust speed)